Location: Tel Aviv
(32.0670°N, 34.7670°E)
Time: 21:06:26
(UTC+02:00)

CUTE-I - Pass Details

Date: 17 December 2025
Orbit: 805 x 817 km, 98.7° (Epoch: 21 January)

Event Time Altitude Azimuth Distance (km) Brightness Sun altitude
Rises 17:34:48 0° 176° (S) 3,302 ? -11.7°
Reaches altitude 10° 17:37:10 10° 180° (S) 2,375 ? -12.1°
Maximum altitude 17:42:19 57° 259° (W) 941 ? -13.2°
Drops below altitude 10° 17:47:31 10° 338° (NNW) 2,394 ? -14.2°
Sets 17:49:55 0° 342° (NNW) 3,330 ? -14.7°
